Previsão horária em Abla

Hoje, 18 Maio, Terça-feira

Tempo Temperatura Precipitação Vento Pressão Humidade
00:00 +18°C° 0.7 mm 3 m/s 754 mmHg 86%
01:00 +18°C° 0 mm 3 m/s 754 mmHg 86%
02:00 +18°C° 0 mm 3 m/s 754 mmHg 86%
03:00 +17°C° 0 mm 3 m/s 754 mmHg 86%
04:00 +18°C° 0 mm 3 m/s 754 mmHg 83%
05:00 +19°C° 0 mm 3 m/s 754 mmHg 80%
06:00 +19°C° 0 mm 3 m/s 755 mmHg 77%
07:00 +27°C° 0 mm 4 m/s 755 mmHg 49%
08:00 +26°C° 0 mm 4 m/s 755 mmHg 53%
09:00 +25°C° 0 mm 4 m/s 755 mmHg 57%
10:00 +26°C° 0 mm 4 m/s 755 mmHg 54%
11:00 +27°C° 0 mm 4 m/s 755 mmHg 51%
12:00 +28°C° 0 mm 4 m/s 755 mmHg 48%
13:00 +28°C° 0 mm 4 m/s 755 mmHg 47%
14:00 +28°C° 0 mm 4 m/s 755 mmHg 47%
15:00 +28°C° 0 mm 4 m/s 755 mmHg 46%
16:00 +27°C° 0 mm 4 m/s 755 mmHg 50%
17:00 +26°C° 0 mm 3 m/s 755 mmHg 54%
18:00 +25°C° 0 mm 3 m/s 754 mmHg 58%
19:00 +24°C° 0 mm 3 m/s 755 mmHg 61%
20:00 +21°C° 0 mm 3 m/s 755 mmHg 63%
21:00 +19°C° 0 mm 3 m/s 755 mmHg 66%
22:00 +19°C° 0 mm 3 m/s 755 mmHg 67%
23:00 +18°C° 0 mm 3 m/s 755 mmHg 68%

Amanhã, 19 Maio, Quarta-feira

Tempo Temperatura Precipitação Vento Pressão Humidade
00:00 +17°C° 0 mm 3 m/s 755 mmHg 69%
01:00 +17°C° 0 mm 3 m/s 755 mmHg 72%
02:00 +16°C° 0 mm 3 m/s 755 mmHg 75%
03:00 +16°C° 0 mm 3 m/s 755 mmHg 78%
04:00 +15°C° 0 mm 4 m/s 755 mmHg 76%
05:00 +17°C° 0 mm 4 m/s 755 mmHg 75%
06:00 +17°C° 0 mm 5 m/s 755 mmHg 74%
07:00 +19°C° 0 mm 5 m/s 755 mmHg 68%
08:00 +21°C° 0 mm 6 m/s 755 mmHg 63%
09:00 +22°C° 0 mm 6 m/s 755 mmHg 57%
10:00 +23°C° 0 mm 6 m/s 755 mmHg 53%
11:00 +24°C° 0 mm 6 m/s 755 mmHg 49%
12:00 +26°C° 0 mm 6 m/s 755 mmHg 46%
13:00 +26°C° 0 mm 6 m/s 755 mmHg 45%
14:00 +26°C° 0 mm 6 m/s 755 mmHg 44%
15:00 +27°C° 0 mm 6 m/s 755 mmHg 43%
16:00 +26°C° 0 mm 5 m/s 755 mmHg 48%
17:00 +25°C° 0 mm 5 m/s 755 mmHg 52%
18:00 +23°C° 0 mm 5 m/s 754 mmHg 57%
19:00 +22°C° 0 mm 5 m/s 755 mmHg 60%
20:00 +20°C° 0 mm 5 m/s 755 mmHg 63%
21:00 +19°C° 0 mm 5 m/s 755 mmHg 67%
22:00 +19°C° 0 mm 4 m/s 755 mmHg 68%
23:00 +18°C° 0 mm 4 m/s 755 mmHg 69%

Depois de amanhã, 20 Maio, Quinta-feira

Tempo Temperatura Precipitação Vento Pressão Humidade
00:00 +17°C° 0 mm 4 m/s 754 mmHg 71%
01:00 +17°C° 0 mm 4 m/s 755 mmHg 72%
02:00 +15°C° 0 mm 4 m/s 755 mmHg 73%
03:00 +15°C° 0 mm 4 m/s 755 mmHg 74%
04:00 +17°C° 0 mm 4 m/s 755 mmHg 72%
05:00 +17°C° 0 mm 4 m/s 755 mmHg 70%
06:00 +18°C° 0 mm 4 m/s 755 mmHg 68%
07:00 +20°C° 0 mm 5 m/s 755 mmHg 62%
08:00 +21°C° 0 mm 6 m/s 755 mmHg 56%
09:00 +23°C° 0 mm 6 m/s 755 mmHg 50%
10:00 +23°C° 0 mm 6 m/s 755 mmHg 47%
11:00 +24°C° 0 mm 7 m/s 755 mmHg 43%
12:00 +24°C° 0 mm 7 m/s 755 mmHg 40%
13:00 +26°C° 0 mm 7 m/s 755 mmHg 41%
14:00 +26°C° 0 mm 7 m/s 754 mmHg 42%
15:00 +26°C° 0 mm 7 m/s 754 mmHg 42%
16:00 +24°C° 0 mm 6 m/s 754 mmHg 45%
17:00 +23°C° 0 mm 6 m/s 754 mmHg 48%
18:00 +22°C° 0 mm 6 m/s 754 mmHg 51%
19:00 +21°C° 0 mm 5 m/s 754 mmHg 54%
20:00 +20°C° 0 mm 5 m/s 754 mmHg 56%
21:00 +17°C° 0 mm 5 m/s 754 mmHg 59%
22:00 +17°C° 0 mm 4 m/s 754 mmHg 62%
23:00 +17°C° 0 mm 4 m/s 754 mmHg 65%

21 Maio, Sexta-feira

Tempo Temperatura Precipitação Vento Pressão Humidade
00:00 +16°C° 0 mm 3 m/s 753 mmHg 68%
01:00 +14°C° 0 mm 3 m/s 754 mmHg 72%
02:00 +13°C° 0 mm 3 m/s 754 mmHg 75%
03:00 +14°C° 0 mm 2 m/s 754 mmHg 78%
04:00 +15°C° 0 mm 2 m/s 754 mmHg 77%
05:00 +16°C° 0 mm 3 m/s 754 mmHg 75%
06:00 +17°C° 0 mm 3 m/s 754 mmHg 74%
07:00 +17°C° 0 mm 3 m/s 754 mmHg 73%
08:00 +18°C° 0 mm 3 m/s 754 mmHg 73%
09:00 +19°C° 0 mm 4 m/s 754 mmHg 72%
10:00 +20°C° 0 mm 4 m/s 754 mmHg 67%
11:00 +22°C° 0 mm 5 m/s 754 mmHg 61%
12:00 +23°C° 0 mm 5 m/s 754 mmHg 56%
13:00 +23°C° 0 mm 5 m/s 754 mmHg 55%
14:00 +23°C° 0 mm 5 m/s 754 mmHg 54%
15:00 +23°C° 0 mm 5 m/s 754 mmHg 53%
16:00 +23°C° 0 mm 5 m/s 754 mmHg 56%
17:00 +22°C° 0 mm 4 m/s 754 mmHg 59%
18:00 +21°C° 0 mm 4 m/s 754 mmHg 62%
19:00 +20°C° 0 mm 4 m/s 755 mmHg 67%
20:00 +19°C° 0 mm 3 m/s 755 mmHg 72%
21:00 +17°C° 0 mm 3 m/s 755 mmHg 76%
22:00 +17°C° 0 mm 3 m/s 755 mmHg 78%
23:00 +17°C° 0 mm 3 m/s 755 mmHg 80%

22 Maio, Sábado

Tempo Temperatura Precipitação Vento Pressão Humidade
00:00 +16°C° 0 mm 3 m/s 755 mmHg 81%
01:00 +16°C° 0 mm 3 m/s 756 mmHg 84%
02:00 +15°C° 0 mm 2 m/s 756 mmHg 86%
03:00 +15°C° 0 mm 2 m/s 756 mmHg 89%
04:00 +16°C° 0 mm 2 m/s 757 mmHg 85%
05:00 +16°C° 0 mm 2 m/s 757 mmHg 80%
06:00 +17°C° 0 mm 2 m/s 757 mmHg 76%
07:00 +18°C° 0 mm 2 m/s 757 mmHg 71%
08:00 +19°C° 0 mm 3 m/s 758 mmHg 66%
09:00 +20°C° 0 mm 3 m/s 758 mmHg 61%
10:00 +22°C° 0.1 mm 4 m/s 757 mmHg 60%
11:00 +23°C° 0.1 mm 4 m/s 757 mmHg 59%
12:00 +25°C° 0.1 mm 5 m/s 757 mmHg 57%
13:00 +22°C° 0.4 mm 4 m/s 757 mmHg 66%
14:00 +20°C° 0.4 mm 4 m/s 758 mmHg 75%
15:00 +18°C° 0.4 mm 3 m/s 758 mmHg 84%
16:00 +17°C° 0.3 mm 5 m/s 753 mmHg 72%
17:00 +15°C° 0.3 mm 4 m/s 753 mmHg 80%
18:00 +14°C° 0.3 mm 3 m/s 754 mmHg 87%
19:00 +14°C° 0.5 mm 2 m/s 754 mmHg 88%
20:00 +14°C° 0.5 mm 2 m/s 754 mmHg 90%
21:00 +13°C° 0.5 mm 1 m/s 754 mmHg 91%
22:00 +13°C° 0.2 mm 1 m/s 754 mmHg 90%
23:00 +13°C° 0.2 mm 1 m/s 754 mmHg 90%

23 Maio, Domingo

Tempo Temperatura Precipitação Vento Pressão Humidade
00:00 +13°C° 0.2 mm 1 m/s 754 mmHg 89%
01:00 +13°C° 0.1 mm 1 m/s 754 mmHg 89%
02:00 +13°C° 0.1 mm 1 m/s 754 mmHg 90%
03:00 +13°C° 0.1 mm 1 m/s 754 mmHg 90%
04:00 +13°C° 0 mm 1 m/s 755 mmHg 86%
05:00 +14°C° 0 mm 1 m/s 755 mmHg 83%
06:00 +15°C° 0 mm 1 m/s 755 mmHg 79%
07:00 +16°C° 0 mm 1 m/s 756 mmHg 72%
08:00 +18°C° 0 mm 1 m/s 756 mmHg 65%
09:00 +19°C° 0 mm 2 m/s 756 mmHg 58%
10:00 +20°C° 0 mm 2 m/s 756 mmHg 54%
11:00 +20°C° 0 mm 2 m/s 756 mmHg 50%
12:00 +21°C° 0 mm 2 m/s 756 mmHg 45%
13:00 +23°C° 0 mm 2 m/s 756 mmHg 44%
14:00 +23°C° 0 mm 2 m/s 756 mmHg 43%
15:00 +23°C° 0 mm 1 m/s 756 mmHg 41%
16:00 +23°C° 0 mm 1 m/s 756 mmHg 46%
17:00 +22°C° 0 mm 1 m/s 756 mmHg 51%
18:00 +22°C° 0 mm 1 m/s 756 mmHg 56%
19:00 +19°C° 0 mm 2 m/s 756 mmHg 61%
20:00 +17°C° 0 mm 2 m/s 757 mmHg 65%
21:00 +14°C° 0 mm 3 m/s 757 mmHg 70%
22:00 +13°C° 0 mm 3 m/s 757 mmHg 70%
23:00 +14°C° 0 mm 2 m/s 757 mmHg 70%
Mostrar mais

Necessitamos do seu Consentimento

A Meteoprog e os seus Fornecedores de Serviços podem armazenar e aceder a dados pessoais como cookies, identificadores do dispositivo ou outras tecnologias semelhantes existentes no seu dispositivo e processar estes dados para personalizar conteúdos e anúncios, assim como funcionalidades nas redes sociais e análise de tráfego.

  • Armazenar e/ou aceder a informações no seu dispositivo

    Os cookies, identificadores do dispositivo ou outras informações podem ser armazenados ou acedidos no seu dispositivo, para os fins acima indicados.

  • Anúncios e conteúdos personalizados, medição de anúncios e conteúdos, dados sobre o público-alvo e desenvolvimento de produtos

    Os anúncios e os conteúdos podem ser personalizados com base num perfil. Podem ser adicionados dados adicionais para uma maior personalização dos anúncios e dos conteúdos. A eficácia dos anúncios e dos conteúdos pode ser medida. Podem ser obtidas informações sobre o público que visualizou os anúncios e os conteúdos. Estes dados podem ser usados para desenvolver ou melhorar sistemas, softwares ou a experiência do utilizador.

Ao clicar em "Eu concordo”, permitirá o uso de cookies, identificadores do dispositivo e web beacons mencionados ou outras tecnologias semelhantes. As configurações do navegador do seu dispositivo podem ser alteradas.

Para certos fins, podem ser invocados interesses legítimos ao invés de consentimento. Pode ler mais informação sobre este assunto na nossa Política de Privacidade e Cookies.